This is the latest recevied weather packets stored in our database for station/object HB9KBJ-4. If no packets are shown the sender has not sent any weather packets the latest 10 day(s).
| Time | Temp. | Humidity | Pressure | Rain* | Wind** | Luminosity | Snow |
|---|---|---|---|---|---|---|---|
| 1777562377 | 20.56° C | 45% | - | 0 mm | - | - | - |
| 1777561776 | 20.56° C | 44% | - | 0 mm | - | - | - |
| 1777561476 | 21.11° C | 43% | - | 0 mm | - | - | - |
| 1777560875 | 21.67° C | 43% | - | 0 mm | - | - | - |
| 1777560575 | 21.67° C | 41% | - | 0 mm | - | - | - |
| 1777560275 | 22.22° C | 40% | - | 0 mm | - | - | - |
| 1777559974 | 22.22° C | 40% | - | 0 mm | - | - | - |
| 1777559374 | 22.78° C | 40% | - | 0 mm | - | - | - |
| 1777559073 | 22.78° C | 40% | - | 0 mm | - | - | - |
| 1777558773 | 22.78° C | 41% | - | 0 mm | - | - | - |
| 1777558473 | 22.78° C | 39% | - | 0 mm | - | - | - |
| 1777557872 | 22.78° C | 40% | - | 0 mm | - | - | - |
| 1777557272 | 23.33° C | 39% | - | 0 mm | - | - | - |
| 1777556971 | 23.33° C | 38% | - | 0 mm | - | - | - |
| 1777556671 | 22.78° C | 41% | - | 0 mm | - | - | - |
| 1777556070 | 23.89° C | 38% | - | 0 mm | - | - | - |
| 1777555770 | 23.33° C | 40% | - | 0 mm | - | - | - |
| 1777555470 | 23.33° C | 41% | - | 0 mm | - | - | - |
| 1777555169 | 23.33° C | 40% | - | 0 mm | - | - | - |
| 1777554869 | 22.78° C | 41% | - | 0 mm | - | - | - |
| 1777554569 | 22.78° C | 38% | - | 0 mm | - | - | - |
| 1777554269 | 22.78° C | 42% | - | 0 mm | - | - | - |
| 1777553668 | 22.22° C | 42% | - | 0 mm | - | - | - |
| 1777553368 | 21.67° C | 42% | - | 0 mm | - | - | - |
| 1777553068 | 21.67° C | 42% | - | 0 mm | - | - | - |
* Rain since midnight (hover to see other rain measurements)
** Current wind speed in m/s (hover to see current wind gust speed)